Regional Weather Roundup
Issued by NWS Little Rock, AR

Home | Current Version | Previous Version | Text Only | Print | Product List | Glossary On
Versions: 1 2 3 4 5 6 7 8 9 10 11 12 13 14 15 16 17 18 19 20 21 22 23 24 25 26 27 28 29 30 31 32 33 34 35 36 37 38 39 40 41 42 43 44 45 46 47 48 49 50
000
ASUS44 KLZK 281105
RWRLZK

WEATHER ROUNDUP FOR ARKANSAS
NATIONAL WEATHER SERVICE LITTLE ROCK AR
500 AM CST FRI NOV 28 2014

NOTE: "FAIR" INDICATES FEW OR NO CLOUDS BELOW 12,000 FEET WITH NO
SIGNIFICANT WEATHER AND/OR OBSTRUCTIONS TO VISIBILITY.

ARZ001-003-010-029-281200-
NORTHWEST ARKANSAS

CITY           SKY/WX    TMP DP  RH WIND       PRES   REMARKS
FAYETTEVILLE   CLEAR     34  26  72 S9        30.23F WCI  27
FORT SMITH     CLEAR     32  27  81 NE6       30.30F WCI  26
HARRISON       CLEAR     35  27  72 S10       30.24F WCI  27
BENTONVILLE    CLEAR     34  25  69 S7        30.21F WCI  28
ROGERS         CLEAR     36  26  67 S12       30.20F
SILOAM SPGS    CLEAR     37  23  56 S12       30.22F
HIGHFILL       CLEAR     35  26  69 S12       30.20F WCI  27
$$

ARZ004-005-016-281200-
NORTH CENTRAL ARKANSAS

CITY           SKY/WX    TMP DP  RH WIND       PRES   REMARKS
BATESVILLE     CLEAR     34  27  75 S5        30.36F WCI  30
FLIPPIN        CLEAR     30  21  69 S3        30.28F
MTN HOME       CLEAR     30  25  81 SE5       30.27F WCI  25
$$

ARZ040-041-281200-
WEST CENTRAL ARKANSAS

CITY           SKY/WX    TMP DP  RH WIND       PRES   REMARKS
MENA           CLEAR     43  32  65 CALM      30.32F
MOUNT IDA      CLEAR     36  30  79 VRB3      30.32S
$$

ARZ009-017-025-026-028-281200-
NORTHEAST ARKANSAS

CITY           SKY/WX    TMP DP  RH WIND       PRES   REMARKS
CORNING        FAIR      28  27  93 SE6       30.38F FOG     WCI  22
JONESBORO      CLEAR     30  28  92 SE3       30.39F
NEWPORT        CLEAR     30  29  96 S7        30.40F WCI  23
WALNUT RIDGE   CLEAR     30  27  86 SE3       30.38F
BLYTHEVILLE    CLEAR     37  26  64 S6        30.41R
$$

ARZ022-023-033-042-044-281200-
CENTRAL ARKANSAS

CITY           SKY/WX    TMP DP  RH WIND       PRES   REMARKS
LITTLE ROCK    CLEAR     30  25  81 CALM      30.39S
N LITTLE ROCK    N/A     34  31  88 S5        30.39S WCI  30
JACKSONVILLE   CLEAR     27  25  91 CALM      30.38S
HOT SPRINGS    CLEAR     37  30  75 SE5       30.37S
RUSSELLVILLE   CLEAR     30  27  88 CALM      30.34F
CLINTON        FAIR      25  23  93 CALM      30.37F
$$

ARZ036-281200-
EAST ARKANSAS

CITY           SKY/WX    TMP DP  RH WIND       PRES   REMARKS
WEST MEMPHIS   CLEAR     29  27  92 S8        30.40F WCI  21
$$

ARZ050-053-066-070-073-281200-
SOUTHWEST ARKANSAS

CITY           SKY/WX    TMP DP  RH WIND       PRES   REMARKS
ARKADELPHIA    FAIR      29  29 100 CALM      30.39F
CAMDEN         CLEAR     28  27  93 CALM      30.39F FOG
TEXARKANA      CLEAR     37  32  82 S8        30.35F
EL DORADO      CLEAR     31  29  92 S3        30.38F
DE QUEEN       CLEAR     29  28  96 E3        30.34F FOG
$$

ARZ056-057-069-281200-
SOUTHEAST ARKANSAS

CITY           SKY/WX    TMP DP  RH WIND       PRES   REMARKS
PINE BLUFF     CLEAR     30  27  88 S5        30.39F WCI  25
STUTTGART      CLEAR     36  28  75 S5        30.40S
MONTICELLO     CLEAR     34  29  82 SE3       30.41F

$$





USA.gov is the U.S. government's official web portal to all federal, state and local government web resources and services.